Jackpot Winner Texas Poker

Kini Telah hadir Jackpot SUPER ROYAL FLUSH

Kini Telah hadir Jackpot 2000 (khusus table VIP keatas).

Ikutilah global jackpot yang tersedia di system kami, dengan system jackpot terbaru dan pertama di indonesia, anda dapat membeli jackpot dengan harga 100 rupiah saja dan menangkan hadiahnya hingga puluhan juta rupiah.

Jackpot bukanlah suatu keharusan untuk dibeli, namun kami memberikan suatu fitur tambahan untuk member tercinta dari www.avatar.96nmdqufhz.

Terdapat tiga pilihan harga jackpot yang bisa anda beli yaitu :100,500,1000 dan 2000(khusus table VIP Keatas) rupiah.

Hadiah dari Multi jackpot system www.avatar.96nmdqufhz

  1. full house x 10 harga jackpot yang anda beli.
      (contoH:anda membeli 1000 maka:1000 X10 = 10.000)
  2. four of kind x 250 harga jackpot yang anda beli
      (contoH:anda membeli 1000 maka:1000 X250 = 250.000)
  3. Straight flush x 1200
      (contoH:anda membeli 1000 maka:1000 X1200 = 1.200.000)
  4. Royal flush x 10000 harga jackpot yang anda beli
      (contoH:anda membeli 1000 maka:1000 X10000 = 10.000.000)
  5. SUPER ROYAL FLUSH x 30000 harga jackpot yang anda beli
      (contoH:anda membeli 1000 maka:1000 X30000 = 30.000.000)

Kondisi kartu

  1. full house adalah kondisi kartu dimana kartu anda dan kartu tengah dengan total 7 kartu bisa mendapatkan nilai 5 kartu dengan kombinasi 1 tris(three of kind) dan 1 pair, contoh 3 kartu 10 dan 2 kartu 5
  2. Four of kind adalah kondisi kartu dimana kartu anda dan kartu tengah dengan total 7 kartu bisa mendapatkan nilai 5 kartu dengan kombinasi 4 kartu yang sama jumlah dan 1 kartu apapun juga contoh anda mendapatkan 4 buah kartu angka 3 dan 1 kartu apapun.
  3. Straight flush adalah kondisi kartu dimana kartu anda dan kartu tengah dengan total 7 kartu bisa mendapatkan nilai 5 kartu dengan kombinasi seri / staright dengan kembang yang sama contoh : urutan kartu dari angka 5, 6, 7, 8 , 9 10 dengan kembang yg sama misalnya as hati
  4. Royal flush adalah kondisi kartu dimana kartu anda dan kartu tengah dengan total 7 kartu bisa mendapatkan nilai 5 kartu dengan kombinasi seri / staright dengan kembang yang sama tetapi kartu tersebut haruslah dimulai dari 10. contoh 10, Queen, Jack, King dan aces dengan kembang yang sama
  5. Super Royal flush adalah kondisi kartu dimana Kedua kartu anda digabung dengan 3 kartu pertama meja haruslah royal flush. contoh kartu anda10,Queen dan 3 kartu pertama meja adalah Jack, King dan aces dengan kembang yang sama

Demikian adalah penjelasan dari Multi Jackpot www.avatar.96nmdqufhz terima kasih dan selamat bermain salam hoki dari kami


Jackpot Winner

TOP SUPER ROYAL FLUSH
No.TanggalNamaPriceWin
120/10 15:40TANTEELISuper Royal flush6,000,000
220/10 13:12CIKIKA25Super Royal flush30,000,000
320/10 06:56K4P4X2016Super Royal flush3,000,000
420/10 02:43ALLLEASuper Royal flush15,000,000
519/10 21:20NIHON99Super Royal flush3,000,000
TOP ROYAL FLUSH
No.TanggalNamaPriceWin
120/10 17:15BORI9JTRoyal flush5,000,000
220/10 17:13CHOBOY89Royal flush1,000,000
320/10 17:09PENYOT20Royal flush1,000,000
420/10 16:55YOSKOS_99Royal flush2,000,000
520/10 16:54MAUNINGRoyal flush1,000,000
TOP STRAIGHT FLUSH
No.TanggalNamaPriceWin
120/10 17:17CUMANTAUWDStraight Flush120,000
220/10 17:15ADEKY12Straight Flush240,000
320/10 17:13KONTOLDEWAStraight Flush600,000
420/10 17:12RIMUNDStraight Flush240,000
520/10 17:11PICO78Straight Flush600,000
LATEST JACKPOT
No.TanggalNamaPriceWin
120/10 17:19YQ8FF0A0OOFull House1,000
220/10 17:19DWBTGUS381Full House5,000
320/10 17:19HZ40WF9NX5Full House2,000
420/10 17:19CF7DB716Full House10,000
520/10 17:19YESAAFull House10,000
620/10 17:19FRI20Full House5,000
720/10 17:18MOOTDHEFull House2,000
820/10 17:18TAMRIN4477Full House20,000
920/10 17:18KEYKEYYAFull House20,000
1020/10 17:18XO9I51K9JCFull House5,000
1120/10 17:18PASTEL1Full House2,000
1220/10 17:18WILLY24Full House1,000
1320/10 17:18KO87Four Of A Kind125,000
1420/10 17:18AT6AOZHIQXFull House20,000
1520/10 17:18MIZZRACHIFull House5,000
1620/10 17:18JULIANTOLMFull House2,000
1720/10 17:18ASIONG123Full House2,000
1820/10 17:18BAGJATEAFull House2,000
1920/10 17:18WWKZSJ0GDGFull House10,000
2020/10 17:18CEPOTTIAFull House2,000
2120/10 17:18DOABUNDA99Full House2,000
2220/10 17:18GEMBELKOTAFull House5,000
2320/10 17:18RAZIBA69Full House2,000
2420/10 17:18AHMADAJIFull House2,000
2520/10 17:18SINTEMPEFull House5,000
2620/10 17:18W3LL1PUPRFull House1,000
2720/10 17:18ETA1234Full House1,000
2820/10 17:18E508B68AFull House1,000
2920/10 17:18HSTEVEN747Full House10,000
3020/10 17:18ADRIEN123Full House2,000
3120/10 17:18WERIS3019Full House2,000
3220/10 17:18BLOODGUESTFour Of A Kind50,000
3320/10 17:18SKMSUBURFull House5,000
3420/10 17:18OPBORESFull House1,000
3520/10 17:18YAUMUL22Full House2,000
3620/10 17:18MR1975Full House500
3720/10 17:18RCKXIRD96SFull House2,000
3820/10 17:18LORETA2222Full House2,000
3920/10 17:18GUANZO69Full House1,000
4020/10 17:18KO87Full House5,000
4120/10 17:18CINTAJOSFull House2,000
4220/10 17:18MOSCO22Full House1,000
4320/10 17:18BODREG99Full House2,000
4420/10 17:17DOOLAR5397Full House2,000
4520/10 17:17RSUDHAMFull House5,000
4620/10 17:17FUBORU41Four Of A Kind250,000
4720/10 17:17TPLY5WTTHGFull House2,000
4820/10 17:17ANDREAS74Full House5,000
4920/10 17:17RBOLCMR12Full House2,000
5020/10 17:17ULAHELEHOKFull House5,000
Dewa.FM